Location: Putah Creek Observatory
(38.7021°N, 122.3865°W)
Time: 00:17:30
(UTC-07:00)

Cosmos 2227 Rocket - Pass Details

Date: 27 May 2018
Orbit: 841 x 843 km, 71.0° (Epoch: 21 October)

Event Time Altitude Azimuth Distance (km) Brightness Sun altitude
Exits shadow 22:16:35 15° 88° (E) 2,140 3.9 -17.8°
Drops below altitude 10° 22:18:50 10° 64° (ENE) 2,462 4.5 -18.1°
Sets 22:22:19 0° 43° (NE) 3,403 5.4 -18.6°
